Bishop, CA

12:32 PM PDT on May 23, 2018 (GMT -0700)
Bishop

Weather History for KBIH - January, 2013

Change the Weather History Date:

Monday, January 7, 2013

  Actual Average Record
Temperature  
Mean Temperature 36 °F 38 °F  
Max Temperature 51 °F 53 °F 73 °F (1962)
Min Temperature 20 °F 22 °F -7 °F (1982)
Degree Days  
Heating Degree Days 29 27  
Month to date heating degree days 235 191  
Since 1 July heating degree days 1954 1938  
Cooling Degree Days 0 0  
Month to date cooling degree days 0 0  
Year to date cooling degree days 0 0  
Moisture  
Dew Point 18 °F    
Average Humidity 51    
Maximum Humidity 77    
Minimum Humidity 24    
Precipitation  
Precipitation 0.00 in 0.04 in 0.72 in (1995)
Month to date precipitation T 0.29  
Year to date precipitation T 0.29  
Snow  
Snow 0.00 in 0.20 in 12.00 in (2005)
Month to date snowfall T 1.3  
Since 1 July snowfall 2.8 2.8  
Snow Depth 0.00 in    
Sea Level Pressure  
Sea Level Pressure 30.22 in    
Wind  
Wind Speed 9 mph (NW)    
Max Wind Speed 14 mph    
Max Gust Speed 18 mph    
Visibility 10 miles    
Events      
T = Trace of Precipitation, MM = Missing Value Source: NWS Daily Summary

Daily Weather History Graph

Daily Weather History Graph

Search for Another Location

Airport or City:

Astronomy

Jan. 07, 2013 Rise Set
Actual Time 7:08 AM PST 4:52 PM PST
Civil Twilight 6:39 AM PST 5:20 PM PST
Nautical Twilight 6:06 AM PST 5:53 PM PST
Astronomical Twilight 5:35 AM PST 6:24 PM PST
Moon 2:38 AM PST (1/7) 1:05 PM PST (1/7)
Length of Visible Light 10h 41m
Length of Day
9h 43m
Waning Crescent, 21% of the Moon is Illuminated
Jan 7
Waning Crescent
Jan 11
New
Jan 18
First Quarter
Jan 26
Full
Feb 3
Last Quarter

Hourly Weather History & Observations

Time (PST) Temp. Windchill Dew Point Humidity Pressure Visibility Wind Dir Wind Speed Gust Speed Precip Events Conditions
12:56 AM 25.0 °F 16.3 °F 17.1 °F 72% 30.16 in 10.0 mi NW 8.1 mph - N/A   Clear
1:56 AM 25.0 °F 14.8 °F 17.1 °F 72% 30.19 in 10.0 mi NNW 10.4 mph - N/A   Clear
2:56 AM 24.1 °F 18.2 °F 16.0 °F 71% 30.22 in 10.0 mi West 4.6 mph - N/A   Clear
3:56 AM 23.0 °F 10.6 °F 16.0 °F 74% 30.22 in 10.0 mi WNW 13.8 mph - N/A   Clear
4:56 AM 21.0 °F 9.9 °F 15.1 °F 78% 30.25 in 10.0 mi NNW 10.4 mph - N/A   Clear
5:56 AM 21.9 °F 11.7 °F 15.1 °F 75% 30.26 in 10.0 mi North 9.2 mph - N/A   Clear
6:56 AM 24.1 °F 15.2 °F 14.0 °F 65% 30.29 in 10.0 mi North 8.1 mph - N/A   Clear
7:56 AM 27.0 °F 18.0 °F 15.1 °F 61% 30.29 in 10.0 mi NNW 9.2 mph - N/A   Clear
8:56 AM 35.1 °F 29.3 °F 18.0 °F 50% 30.30 in 10.0 mi NW 6.9 mph - N/A   Clear
9:56 AM 41.0 °F 35.8 °F 18.0 °F 40% 30.29 in 10.0 mi NNW 8.1 mph - N/A   Clear
10:56 AM 44.1 °F 39.5 °F 18.0 °F 35% 30.25 in 10.0 mi NNW 8.1 mph - N/A   Clear
11:56 AM 48.0 °F - 18.0 °F 30% 30.19 in 10.0 mi NNW 9.2 mph - N/A   Clear
12:56 PM 48.9 °F - 16.0 °F 27% 30.15 in 10.0 mi WNW 11.5 mph 17.3 mph N/A   Clear
1:56 PM 50.0 °F - 15.1 °F 25% 30.14 in 10.0 mi NW 11.5 mph - N/A   Clear
2:56 PM 50.0 °F - 16.0 °F 26% 30.16 in 10.0 mi West 10.4 mph - N/A   Clear
3:56 PM 48.9 °F - 16.0 °F 27% 30.17 in 10.0 mi NW 5.8 mph - N/A   Scattered Clouds
4:56 PM 42.1 °F 39.2 °F 16.0 °F 35% 30.19 in 10.0 mi WNW 4.6 mph - N/A   Clear
5:56 PM 39.0 °F 32.8 °F 17.1 °F 41% 30.21 in 10.0 mi West 9.2 mph - N/A   Partly Cloudy
6:56 PM 39.0 °F 32.8 °F 18.0 °F 43% 30.22 in 10.0 mi West 9.2 mph - N/A   Mostly Cloudy
7:56 PM 37.9 °F 30.9 °F 19.9 °F 48% 30.22 in 10.0 mi NW 10.4 mph - N/A   Mostly Cloudy
8:56 PM 37.0 °F 31.0 °F 19.9 °F 50% 30.21 in 10.0 mi NW 8.1 mph - N/A   Partly Cloudy
9:56 PM 37.4 °F 31.4 °F 21.2 °F 52% 30.22 in 10.0 mi NW 8.1 mph - N/A   Mostly Cloudy
10:56 PM 36.0 °F 31.1 °F 21.9 °F 57% 30.20 in 10.0 mi NW 5.8 mph - N/A   Clear
11:56 PM 36.0 °F 30.3 °F 26.1 °F 67% 30.18 in 10.0 mi WNW 6.9 mph - N/A   Clear